sat.trackr.live / text

‹ back to catalog

STARLINK-37530

NORAD 69131 · 2026-110H

PAYLOAD ACTIVE UNKNOWN

§ Identity

Operator
Country
US
Launch date
2026-05-20
Launch site
AFWTR
Launch vehicle
Mass (kg)
RCS (m²)

Purposes: comms

External: N2YO · Heavens-Above · Gunter

§ Orbital elements

Epoch: 2026-09-18T23:51:58.133376Z

Period
93.91 min
Inclination
97.2850°
Eccentricity
0.0002467
Mean motion
15.33448527 rev/d
Perigee alt
463.8 km
Apogee alt
467.2 km
Semi-major
6,843.7 km
B*
3.8092e-4
RAAN
97.0488°
Arg perigee
103.9380°
Mean anomaly
256.2138°
Rev number
1,998

§ Raw data

STARLINK-375301 69131U 26110H   26261.99442284  .00012245  00000+0  38092-3 0  99972 69131  97.2850  97.0488 0002467 103.9380 256.2138 15.33448527 19988

JSON: /api/v1/satellites/69131 · /tle

For live sub-satellite position, see the globe view (requires WebGL).

§ Visibility from observer

Set your observer location to see the next 7 days of passes ≥ 10°. The values pass through the URL so the page stays shareable.

No JS? Fill the form by hand. The geolocation button needs JavaScript.